[[{"header":{"parameterUnit":"m.s-1","parameterCategory":1,"la1":30.2991,"la2":30.254,"lo1":-89.0895,"lo2":-89.0444,"dy":0.0017,"dx":0.0017,"nx":28,"ny":28,"refTime":"2025-04-06T09:00:00:Z","depth":0,"parameterNumber":2,"parameterNumberName":"U-component_of_WINDS"},"data":[0,0,0,0,0,0,0,0,0,0,0,0,0,0,0,0,0,0,0,0,0,0,0,0,0,0,0,0,0,0,0,0,0,0,0,0,0,0,0,0,0,0,0,0,0,0,0,0,0,0,0,0,0,0,0,0,0,0,1.4575,1.4575,0,1.459,1.459,1.459,1.4583,1.4583,1.4582,1.4582,1.4597,1.4597,1.4598,0,0,0,0,0,0,0,0,0,0,0,0,0,1.454,1.4541,1.4575,1.4575,1.4575,1.459,1.459,1.459,1.4583,1.4583,1.4582,1.4582,1.4596,1.4597,1.4598,0,0,0,0,0,0,0,0,0,0,0,0,0,1.4555,1.4541,1.4575,1.4574,1.4574,1.459,1.459,1.459,1.4583,1.4583,1.4582,1.4582,1.4596,1.4597,1.4598,1.4616,0,0,1.4602,1.4602,0,0,0,0,0,0,0,0,1.4554,1.4557,1.4574,1.4574,1.4574,1.4584,1.4583,1.4599,1.4584,1.458,1.4582,1.4581,1.4593,1.4594,1.4598,1.4617,1.4618,1.4602,1.4602,1.4603,1.4603,0,0,0,0,0,0,0,1.4553,1.4556,1.4581,1.4574,1.4574,1.4572,1.4574,1.4586,1.4589,1.458,1.4579,1.4581,1.4593,1.4597,1.4598,1.4618,1.4602,1.4603,1.4603,1.4604,1.4653,1.4654,0,0,0,0,0,0,1.4552,1.4555,1.458,1.4581,1.4563,1.4573,1.4575,1.4581,1.4589,1.459,1.4582,1.4581,1.4596,1.4597,1.4599,1.4621,1.4603,1.4604,1.4604,1.4652,1.4653,1.4654,0,0,0,0,0,0,1.4552,1.4555,1.458,1.4568,1.4571,1.4575,1.4582,1.4582,1.4586,1.4591,1.4591,1.4586,1.4595,1.4597,1.4612,1.4621,1.4604,1.4605,1.4652,1.4653,1.4654,1.4665,0,0,0,0,0,0,1.4551,1.4555,1.4561,1.4568,1.4572,1.4593,1.4582,1.4583,1.4588,1.4587,1.4594,1.4595,1.4595,1.4611,1.4613,1.4622,1.4606,1.4651,1.4652,1.4653,1.4663,1.4666,1.4668,0,0,0,0,0,1.455,1.4563,1.4562,1.4565,1.458,1.4593,1.4595,1.4595,1.4589,1.4596,1.4599,1.4595,1.462,1.4612,1.4615,1.4625,1.465,1.4652,1.4653,1.4662,1.4665,1.4668,0,0,0,0,0,0,1.4556,1.4564,1.4562,1.4579,1.4586,1.4592,1.46,1.4598,1.4606,1.4605,1.4605,1.4606,1.4622,1.4625,1.4616,1.4643,1.4634,1.4636,1.464,1.4643,1.4645,1.4644,1.4607,0,0,0,0,0,1.456,1.457,1.4576,1.459,1.4594,1.4597,1.4602,1.4602,1.4609,1.4611,1.4615,1.4622,1.4631,1.4638,1.4647,1.4664,1.4666,1.4673,1.4675,1.4677,1.4678,1.4688,1.4691,1.4659,1.4659,1.4659,0,0,1.4567,1.4573,1.4579,1.4592,1.4597,1.4607,1.4599,1.461,1.4618,1.4613,1.4627,1.4631,1.4638,1.4655,1.4662,1.4658,1.4688,1.4679,1.468,1.468,1.469,1.4693,1.4696,1.466,1.466,1.4659,0,0,1.4586,1.4591,1.4603,1.4609,1.4617,1.4619,1.4623,1.463,1.4632,1.4647,1.4643,1.4653,1.4669,1.4675,1.468,1.4702,1.4699,1.4705,1.4716,1.4726,1.4729,1.4731,1.4739,1.4742,1.4707,1.4707,1.4707,0,1.4593,1.4609,1.461,1.4622,1.4628,1.4625,1.4638,1.4643,1.4654,1.4658,1.4653,1.4674,1.4679,1.4697,1.4703,1.4707,1.4711,1.4704,1.4729,1.4731,1.4733,1.4741,1.4744,1.4708,1.4708,1.4708,1.4708,0,1.4618,1.4629,1.4638,1.4649,1.4657,1.4669,1.4672,1.4679,1.4679,1.4681,1.4697,1.4703,1.4713,1.4718,1.4717,1.4736,1.4733,1.4729,1.4719,1.4737,1.4744,1.4747,1.4709,1.4709,1.4708,1.4708,0,0,1.4639,1.4652,1.4656,1.4661,1.4671,1.4679,1.4692,1.4703,1.4709,1.4717,1.4727,1.4742,1.4738,1.4744,1.4744,1.4753,1.4771,1.4748,1.4748,1.4751,1.4792,1.4795,1.4799,1.4769,1.477,1.477,1.4792,0,1.4658,1.468,1.4682,1.4702,1.4713,1.4711,1.4722,1.4729,1.4733,1.4742,1.4746,1.4756,1.4751,1.4754,1.4763,1.4767,1.4779,1.4765,1.4779,1.4779,1.4776,1.4802,1.4805,1.4825,1.4795,1.4795,1.4795,0,1.4683,1.4692,1.4713,1.4723,1.4727,1.4737,1.4747,1.4757,1.4765,1.4767,1.4775,1.4774,1.4787,1.4779,1.4797,1.4788,1.4793,1.4796,1.4797,1.4798,1.4788,1.4803,1.4831,1.4834,1.48,1.4799,1.4799,0,1.4696,1.4714,1.4729,1.4734,1.4745,1.4752,1.4757,1.4765,1.4772,1.4782,1.4786,1.4797,1.4803,1.4811,1.4814,1.4807,1.4832,1.4823,1.4834,1.4834,1.4838,1.4838,1.4867,1.4843,1.4843,1.4843,1.4843,0,1.4716,1.4729,1.4735,1.4744,1.4759,1.4762,1.4776,1.4781,1.4789,1.4799,1.4798,1.4808,1.4811,1.4821,1.4823,1.4838,1.4841,1.4843,1.4843,1.4843,1.4842,1.4846,1.4844,1.4844,1.4844,1.4843,1.4843,0,1.4733,1.4738,1.4754,1.4764,1.4767,1.4777,1.4786,1.4795,1.4799,1.4812,1.4815,1.4821,1.4833,1.4837,1.4851,1.4853,1.487,1.487,1.4867,1.4867,1.4877,1.4876,1.4909,1.4914,1.4887,1.4888,1.4888,0,1.4745,1.4755,1.4766,1.4774,1.4779,1.479,1.4798,1.4801,1.4809,1.482,1.4828,1.484,1.485,1.487,1.4875,1.4887,1.4886,1.4897,1.4888,1.4887,1.4886,1.4885,1.4886,1.4898,1.4899,1.4899,1.4899,0,1.4766,1.4768,1.4779,1.4791,1.48,1.4809,1.4818,1.4824,1.4829,1.4838,1.4851,1.4858,1.4874,1.4886,1.4898,1.4903,1.4902,1.4902,1.4905,1.4904,1.4902,1.4903,1.4872,1.4901,1.4901,1.4901,1.4901,1.4901,1.478,1.479,1.4799,1.4812,1.4819,1.4828,1.4837,1.4843,1.4854,1.4867,1.4869,1.4883,1.4892,1.4908,1.4914,1.4925,1.4922,1.4926,1.4927,1.4928,1.4929,1.4902,1.4927,1.4927,1.4927,1.4927,1.4927,0,1.4801,1.4808,1.4819,1.4833,1.4842,1.4842,1.4852,1.486,1.4873,1.4882,1.4892,1.4907,1.4919,1.4927,1.4939,1.4946,1.4946,1.495,1.4949,1.495,1.4931,1.4927,1.495,1.495,1.495,1.4949,1.4949,1.4949,1.4813,1.4829,1.4833,1.4852,1.4859,1.4873,1.4879,1.4887,1.4895,1.4912,1.4922,1.4927,1.4936,1.4949,1.4961,1.4962,1.4967,1.497,1.4972,1.4953,1.4951,1.4949,1.4945,1.4971,1.4971,1.499,1.499,1.499]},{"header":{"parameterUnit":"m.s-1","parameterCategory":1,"la1":30.2991,"la2":30.254,"lo1":-89.0895,"lo2":-89.0444,"dy":0.0017,"dx":0.0017,"nx":28,"ny":28,"refTime":"2025-04-06T09:00:00:Z","depth":0,"parameterNumber":3,"parameterNumberName":"V-component_of_WINDS"},"data":[0,0,0,0,0,0,0,0,0,0,0,0,0,0,0,0,0,0,0,0,0,0,0,0,0,0,0,0,0,0,0,0,0,0,0,0,0,0,0,0,0,0,0,0,0,0,0,0,0,0,0,0,0,0,0,0,0,0,-7.2628,-7.263,0,-7.2805,-7.2807,-7.2809,-7.276,-7.2757,-7.2753,-7.275,-7.2928,-7.2936,-7.2944,0,0,0,0,0,0,0,0,0,0,0,0,0,-7.2244,-7.2251,-7.2628,-7.263,-7.2632,-7.2805,-7.2808,-7.281,-7.2761,-7.2757,-7.2752,-7.2748,-7.2926,-7.2935,-7.2945,0,0,0,0,0,0,0,0,0,0,0,0,0,-7.2415,-7.2254,-7.2628,-7.2629,-7.2631,-7.2805,-7.2808,-7.2811,-7.2762,-7.2757,-7.2751,-7.2746,-7.2923,-7.2934,-7.2946,-7.3129,0,0,-7.2983,-7.2989,0,0,0,0,0,0,0,0,-7.2405,-7.2429,-7.2627,-7.2629,-7.2632,-7.2755,-7.2737,-7.2917,-7.2763,-7.2712,-7.275,-7.2744,-7.2875,-7.2891,-7.2936,-7.3137,-7.3145,-7.2984,-7.2992,-7.2997,-7.3,0,0,0,0,0,0,0,-7.2394,-7.2421,-7.2698,-7.2629,-7.2633,-7.262,-7.2638,-7.2771,-7.2821,-7.2716,-7.2713,-7.2735,-7.2875,-7.2924,-7.2939,-7.3147,-7.2984,-7.2995,-7.3002,-7.3007,-7.3507,-7.3512,0,0,0,0,0,0,-7.238,-7.2412,-7.2692,-7.2703,-7.2503,-7.2631,-7.2651,-7.2721,-7.282,-7.283,-7.2739,-7.2732,-7.2906,-7.2925,-7.2946,-7.3166,-7.2997,-7.3008,-7.3015,-7.3501,-7.3508,-7.3514,0,0,0,0,0,0,-7.2372,-7.2406,-7.2685,-7.2557,-7.2591,-7.2643,-7.2722,-7.2727,-7.2776,-7.2837,-7.2846,-7.278,-7.2902,-7.2928,-7.3084,-7.3171,-7.3014,-7.3025,-7.3494,-7.3503,-7.3511,-7.3607,0,0,0,0,0,0,-7.2361,-7.2403,-7.2474,-7.2559,-7.2598,-7.2822,-7.2727,-7.2735,-7.2798,-7.279,-7.2878,-7.2887,-7.29,-7.3066,-7.3096,-7.3185,-7.3034,-7.3486,-7.3498,-7.3508,-7.3596,-7.3618,-7.3637,0,0,0,0,0,-7.2348,-7.2493,-7.2478,-7.2512,-7.2688,-7.2827,-7.2849,-7.2862,-7.2805,-7.2876,-7.2915,-7.2885,-7.3157,-7.3082,-7.3115,-7.3209,-7.348,-7.3494,-7.3507,-7.3587,-7.3614,-7.3636,0,0,0,0,0,0,-7.2416,-7.2504,-7.2488,-7.2665,-7.2739,-7.2818,-7.2908,-7.289,-7.2981,-7.297,-7.2981,-7.3001,-7.316,-7.32,-7.3116,-7.3391,-7.331,-7.3331,-7.3359,-7.3385,-7.3405,-7.3392,-7.3044,0,0,0,0,0,-7.2452,-7.2558,-7.2629,-7.2779,-7.2817,-7.2856,-7.2917,-7.2921,-7.2997,-7.3028,-7.3078,-7.3153,-7.3255,-7.3322,-7.3419,-7.3601,-7.362,-7.3683,-7.3703,-7.3719,-7.3737,-7.3836,-7.3865,-7.3559,-7.3558,-7.3558,0,0,-7.2527,-7.2588,-7.2654,-7.2794,-7.2852,-7.2961,-7.2883,-7.3002,-7.3082,-7.3045,-7.3196,-7.3235,-7.3319,-7.3488,-7.3565,-7.3527,-7.3826,-7.3736,-7.3749,-7.3758,-7.3853,-7.3882,-7.3908,-7.3568,-7.3566,-7.3565,0,0,-7.2719,-7.2776,-7.2907,-7.2967,-7.3055,-7.3081,-7.3112,-7.3194,-7.322,-7.3371,-7.3345,-7.3441,-7.3617,-7.3677,-7.3731,-7.3946,-7.3921,-7.3977,-7.4084,-7.418,-7.4204,-7.4226,-7.4302,-7.433,-7.3995,-7.3995,-7.3995,0,-7.2801,-7.2965,-7.2977,-7.3098,-7.316,-7.3132,-7.3265,-7.3321,-7.3437,-7.348,-7.3435,-7.3655,-7.3709,-7.3892,-7.3945,-7.3989,-7.4025,-7.3968,-7.42,-7.4222,-7.4242,-7.4315,-7.4344,-7.4001,-7.4001,-7.4,-7.3999,0,-7.3061,-7.3176,-7.327,-7.3384,-7.3456,-7.3582,-7.3612,-7.3684,-7.3681,-7.3711,-7.3864,-7.3928,-7.4038,-7.4082,-7.408,-7.4265,-7.4238,-7.4197,-7.4116,-7.4277,-7.4346,-7.4374,-7.401,-7.4008,-7.4006,-7.4005,0,0,-7.3302,-7.342,-7.3455,-7.3506,-7.3601,-7.3689,-7.3814,-7.3922,-7.3983,-7.4063,-7.4168,-7.4317,-7.4279,-7.4341,-7.4345,-7.4429,-7.4596,-7.4377,-7.4379,-7.4416,-7.4803,-7.4834,-7.4867,-7.458,-7.4585,-7.4589,-7.4796,0,-7.3503,-7.3723,-7.3737,-7.3936,-7.4041,-7.4017,-7.4125,-7.4194,-7.4225,-7.4318,-7.4352,-7.4458,-7.44,-7.4437,-7.4519,-7.4558,-7.4674,-7.4543,-7.4676,-7.4681,-7.4656,-7.4903,-7.4936,-7.5129,-7.4823,-7.4828,-7.4831,0,-7.3767,-7.3856,-7.4066,-7.4147,-7.4191,-7.4289,-7.4389,-7.4478,-7.4556,-7.4573,-7.4642,-7.4634,-7.476,-7.4675,-7.4849,-7.476,-7.4815,-7.4842,-7.4849,-7.4863,-7.4766,-7.4923,-7.519,-7.5219,-7.4874,-7.4871,-7.4868,0,-7.3922,-7.4094,-7.4242,-7.4287,-7.4384,-7.4453,-7.4496,-7.4569,-7.4634,-7.4721,-7.4762,-7.4863,-7.4918,-7.4995,-7.5015,-7.4951,-7.5189,-7.5104,-7.5205,-7.5205,-7.5257,-7.5253,-7.5537,-7.5292,-7.5292,-7.5291,-7.529,0,-7.4145,-7.4274,-7.4313,-7.4404,-7.4548,-7.4562,-7.4704,-7.4743,-7.4808,-7.4905,-7.4889,-7.4981,-7.5,-7.5096,-7.5111,-7.5253,-7.5278,-7.5294,-7.5297,-7.5296,-7.5294,-7.5332,-7.532,-7.5299,-7.5297,-7.5295,-7.5294,0,-7.4343,-7.4374,-7.4534,-7.4613,-7.4636,-7.4738,-7.4805,-7.4892,-7.4921,-7.5045,-7.5074,-7.5119,-7.523,-7.5257,-7.5389,-7.54,-7.5568,-7.5557,-7.5542,-7.5541,-7.5641,-7.5631,-7.5959,-7.6003,-7.5729,-7.5732,-7.5734,0,-7.4483,-7.4582,-7.4672,-7.4737,-7.4784,-7.4888,-7.4954,-7.497,-7.5039,-7.5136,-7.5211,-7.532,-7.5409,-7.5588,-7.5632,-7.5732,-7.5724,-7.5833,-7.5739,-7.5735,-7.5726,-7.572,-7.573,-7.585,-7.5853,-7.5856,-7.5858,0,-7.4729,-7.474,-7.4836,-7.4938,-7.5017,-7.5097,-7.5174,-7.5227,-7.5255,-7.5333,-7.5447,-7.5516,-7.5651,-7.576,-7.5861,-7.5905,-7.5886,-7.5886,-7.5915,-7.5916,-7.5903,-7.5911,-7.5591,-7.5879,-7.5877,-7.5875,-7.5874,-7.5873,-7.4903,-7.499,-7.5067,-7.5174,-7.5234,-7.5306,-7.5392,-7.5431,-7.5527,-7.5639,-7.5643,-7.5767,-7.5842,-7.5977,-7.6026,-7.6123,-7.6089,-7.6131,-7.6142,-7.6152,-7.6161,-7.5887,-7.6141,-7.614,-7.614,-7.6139,-7.6139,0,-7.5148,-7.5197,-7.5295,-7.5404,-7.5488,-7.5463,-7.5547,-7.5619,-7.5729,-7.5801,-7.5888,-7.6019,-7.6124,-7.6177,-7.6281,-7.6348,-7.6342,-7.6375,-7.637,-7.638,-7.6184,-7.6149,-7.6378,-7.6378,-7.6378,-7.6378,-7.6378,-7.6378,-7.5286,-7.5432,-7.5452,-7.5626,-7.5673,-7.5796,-7.5846,-7.5912,-7.5969,-7.6117,-7.6204,-7.6238,-7.6302,-7.641,-7.6505,-7.6518,-7.6557,-7.6594,-7.6603,-7.6418,-7.6394,-7.6371,-7.6338,-7.6603,-7.6603,-7.6791,-7.6792,-7.6794]}]]